Regional Weather Roundup
Issued by NWS

Home | Current Version | Previous Version | Graphics & Text | Print | Product List | Glossary Off
Versions: 1 2 3 4 5 6 7 8 9 10 11 12 13 14 15 16 17 18 19 20 21 22 23 24 25 26 27 28 29 30 31 32 33 34 35 36 37 38 39 40 41 42 43 44 45 46 47 48 49 50

000
ASUS43 KFSD 181902
RWRSD

WEATHER ROUNDUP FOR SOUTH DAKOTA
NATIONAL WEATHER SERVICE SIOUX FALLS SD
100 PM CST SUN FEB 18 2018

NOTE: "FAIR" INDICATES FEW OR NO CLOUDS BELOW 12,000 FEET WITH NO
SIGNIFICANT WEATHER AND/OR OBSTRUCTIONS TO VISIBILITY.


SDZ001>005-009-010-012>017-182000-
NORTHWEST AND NORTH CENTRAL SOUTH DAKOTA

CITY           SKY/WX    TMP DP  RH WIND       PRES   REMARKS
BUFFALO          N/A     10   3  73 N15       29.68R WCI  -7
FAITH            N/A     13  11  92 N29       29.66R WCI  -8
MOBRIDGE       CLOUDY    19  13  77 N20G28    29.65R HAZE    WCI   3
$$

SDZ012>016-024>037-041>051-057-063-072>074-182000-
SOUTHWEST AND SOUTH CENTRAL SOUTH DAKOTA

CITY           SKY/WX    TMP DP  RH WIND       PRES   REMARKS
RAPID CTY ARPT LGT SNOW  19  14  81 N38G53    29.59R BLWGSNOWWCI  -2
PIERRE         CLOUDY    26  21  81 N23       29.63R WCI  11
CUSTER         CLOUDY    34  19  54 E3        29.47S
ELLSWORTH AFB  BLWGSNOW  18  17  94 N38G48    29.59  VSB 1/4 WCI  -3
PHILIP         CLOUDY    23  19  85 N24       29.67R WCI   7
PINE RIDGE     PTSUNNY   34  27  75 N15G22    29.58R WCI  24
SPEARFISH      LGT SNOW  14  10  85 NW16      29.69R VSB 1   WCI  -2
WINNER         FAIR      35  26  69 NW25G31   29.56F WCI  23
$$

SDZ004>011-016>023-039-040-182000-
NORTHEAST SOUTH DAKOTA

CITY           SKY/WX    TMP DP  RH WIND       PRES   REMARKS
ABERDEEN       PTSUNNY   25  17  72 N26G33    29.61R WCI   9
WATERTOWN      CLOUDY    41  26  55 W12       29.48S
BROOKINGS      CLOUDY    42  29  59 SW15      29.50S
SISSETON         N/A     33  24  69 N12       29.55F WCI  24
$$

SDZ017-020-022-023-036>040-048>070-182000-
SOUTHEAST SOUTH DAKOTA

CITY           SKY/WX    TMP DP  RH WIND       PRES   REMARKS
SIOUX FALLS    CLOUDY    43  29  57 S22G29    29.54F
HURON          CLOUDY    34  27  75 NW14      29.53R WCI  25
CHAMBERLAIN    CLOUDY    33  28  81 W23G29    29.57R WCI  20
MITCHELL       CLOUDY    43  29  57 W14G22    29.53R
YANKTON        CLOUDY    46  28  49 S12       29.56F
$$

ABBREVIATIONS USED IN REMARKS
   TC - TEMPERATURE IN CELSIUS
  WCI - WIND CHILL INDEX
   HX - HEAT INDEX
  VSB - VISIBILITY




USA.gov is the U.S. government's official web portal to all federal, state and local government web resources and services.